TimeMST,TemperatureF,Dew PointF,Humidity,Sea Level PressureIn,VisibilityMPH,Wind Direction,Wind SpeedMPH,Gust SpeedMPH,PrecipitationIn,Events,Conditions,WindDirDegrees,DateUTC
12:53 AM,-2.9,-5.1,90,30.23,10.0,South,5.8,-,N/A,,Clear,170,2013-02-25 07:53:00
1:25 AM,-4.0,-5.8,92,29.99,1.8,SSE,6.9,-,N/A,,Clear,160,2013-02-25 08:25:00
1:40 AM,-2.2,-4.0,92,29.99,0.8,South,5.8,-,N/A,,Clear,180,2013-02-25 08:40:00
1:53 AM,-5.1,-7.1,91,30.24,1.0,Calm,Calm,-,N/A,,Clear,0,2013-02-25 08:53:00
2:04 AM,-5.8,-9.4,84,29.98,0.5,Calm,Calm,-,N/A,Fog,Light Freezing Fog,0,2013-02-25 09:04:00
2:13 AM,-5.8,-7.6,92,29.98,0.5,Calm,Calm,-,N/A,Fog,Light Freezing Fog,0,2013-02-25 09:13:00
2:34 AM,-5.8,-7.6,92,29.98,1.0,SSE,8.1,-,N/A,,Mist,150,2013-02-25 09:34:00
2:36 AM,-5.8,-9.4,84,29.98,2.0,SSE,6.9,-,N/A,,Scattered Clouds,150,2013-02-25 09:36:00
2:43 AM,-5.8,-9.4,84,29.98,10.0,SSE,8.1,-,N/A,,Partly Cloudy,160,2013-02-25 09:43:00
2:53 AM,-7.1,-9.0,91,30.23,10.0,SE,8.1,-,N/A,,Clear,140,2013-02-25 09:53:00
3:53 AM,-4.0,-7.1,87,30.21,10.0,SSE,9.2,-,N/A,,Clear,150,2013-02-25 10:53:00
4:53 AM,-14.1,-17.0,87,30.26,10.0,Calm,Calm,-,N/A,,Clear,0,2013-02-25 11:53:00
5:53 AM,-5.1,-8.0,87,30.22,10.0,SSE,8.1,-,N/A,,Clear,150,2013-02-25 12:53:00
6:53 AM,-9.0,-14.1,79,30.25,5.0,SE,4.6,-,N/A,,Haze,130,2013-02-25 13:53:00
7:53 AM,-13.0,-16.1,86,30.30,10.0,Calm,Calm,-,N/A,,Clear,0,2013-02-25 14:53:00
8:53 AM,-0.0,-2.9,88,30.25,10.0,Calm,Calm,-,N/A,,Clear,0,2013-02-25 15:53:00
9:53 AM,10.9,7.0,84,30.19,10.0,SE,3.5,-,N/A,,Clear,140,2013-02-25 16:53:00
10:53 AM,14.0,8.1,77,30.18,10.0,ENE,6.9,-,N/A,,Clear,60,2013-02-25 17:53:00
11:53 AM,19.9,10.0,65,30.14,10.0,NE,8.1,-,N/A,,Clear,50,2013-02-25 18:53:00
12:53 PM,19.0,10.9,71,30.12,10.0,NNE,6.9,-,N/A,,Clear,20,2013-02-25 19:53:00
1:53 PM,21.0,10.9,65,30.11,10.0,North,8.1,-,N/A,,Clear,10,2013-02-25 20:53:00
2:53 PM,21.9,9.0,58,30.09,10.0,NNE,8.1,-,N/A,,Clear,30,2013-02-25 21:53:00
3:53 PM,21.0,10.9,65,30.07,10.0,NE,9.2,-,N/A,,Clear,50,2013-02-25 22:53:00
4:53 PM,19.0,10.0,68,30.13,-9999.0,NE,6.9,-,N/A,,Clear,50,2013-02-25 23:53:00
5:53 PM,12.9,8.1,81,30.10,10.0,ENE,8.1,-,N/A,,Clear,60,2013-02-26 00:53:00
6:53 PM,9.0,5.0,84,30.14,10.0,NW,4.6,-,N/A,,Clear,320,2013-02-26 01:53:00
7:53 PM,7.0,3.0,84,30.17,10.0,Calm,Calm,-,N/A,,Clear,0,2013-02-26 02:53:00
8:53 PM,8.1,3.9,83,30.09,10.0,SSE,6.9,-,N/A,,Clear,150,2013-02-26 03:53:00
9:53 PM,15.1,3.9,61,29.99,10.0,SSW,4.6,-,N/A,,Clear,200,2013-02-26 04:53:00
10:53 PM,10.9,3.0,70,29.98,10.0,WNW,5.8,-,N/A,,Clear,300,2013-02-26 05:53:00
11:53 PM,19.0,6.1,57,29.90,10.0,West,9.2,-,N/A,,Clear,260,2013-02-26 06:53:00